LES 2 AKM, 2529

Orbit data source: Space-Track

LES 2 AKM, 2529 is space debris in HEO originally from a launch on Thu, 06 May 1965 UTC launched from the Air Force Eastern Test Range (AFETR). Debris objects in space refer to the collection of defunct objects orbiting the Earth. Examples of debris include non-operational satellites, rocket bodies, and fragments generated from explosions, collisions, or faulty payload assembly.

Loading next visibility...
Identifier
2529, 1965-034D
Orbit
HEO
Country
Flag of USUS
Related business
Manufacturer
Thiokol/TE
Mission
Spacecraft
Bus & Motor
STAR 13, STAR 13
Mass
~127 kg wet, ~97 kg dry
Launch date (UTC)
1965-05-06 (61 years ago)
Launch vehicle
Unknown
Launch site
Air Force Eastern Test Range (AFETR)
Object type
Payload
Rocket body
Debris
Shape & HBR
SPHERE + CONE, 1.1 m
Radar Cross Section
Medium (>0.1 m² and <1 m²)

Expand to show TLE details & history
Last TLE update: 13 hours ago

TLE from 13 hours ago
0 LES 2 AKM
1 02529U 65034D   26264.36652452 -.00000036  00000-0  00000-0 0  9999
2 02529  32.1977 328.1247 3965484 135.5407 264.1488  4.64838648 24976
Epoch: 2026-09-21T08:47Z
TLE epoch observation values (Epoch: 2026-09-21T08:47:47.718Z)
Latitude
-0.00001°
Longitude
-164.06276°
Altitude
11,447.861 km
Speed
4.294 km/s
True Right ascension
21h 52m 32s
True Declination
0° 00' 00"
Sunlit
Object was in daylight at epoch
Visualization orbit readout
Latitude
Unknown
Longitude
Unknown
Altitude
Unknown
Speed
Unknown
Apparent Right ascension
Unknown
Apparent Declination
Unknown
Sunlit
N/A
Visualization observer readout
Local Sidereal Time
15:11:27
Azimuth
Unknown
Elevation
Unknown
Doppler factor
Unknown
Orbital elements
Apogee altitude
14,804.742 km
Perigee altitude
2,775.031 km
Semi-major axis
15,168.024 km
Eccentricity
0.39655
Inclination
32.1977°
RAAN
328.1247°
Arg. of periapsis
135.5407°
True anomaly
224.48007°
Mean anomaly
264.1488°
Eccentric anomaly
243.76817°
Mean motion
1.16185 °/min
Orbital period
309.85 mins
BSTAR
0
Loading maneuver chart data...
Computing Atmospheric mass density...
Loading historical data...
Loading historical data...
Loading historical data...
Loading historical data...
Loading historical data...
Loading historical data...
Loading historical data...
Other satellites on launch #34 in the year 1965 (1965-05-06 UTC)

Documentation

Showing up to 5 results
|